• In Belarus
  • List of Countries
  • For 7 days
  • Water Temperature
  • Satellite Maps
  • Weather Map
  • Weather Widgets
  • user-avatar
    Login

    Hourly Weather Janowek

    Today, 14 December, Friday

    Time Temperature Precipitation Wind Pressure Humidity
    00:00 -2°C° 0 mm 3 mps 750 mmHg 81%
    01:00 -4°C° 0 mm 3 mps 751 mmHg 85%
    02:00 -4°C° 0 mm 3 mps 751 mmHg 85%
    03:00 -4°C° 0 mm 3 mps 751 mmHg 86%
    04:00 -4°C° 0 mm 3 mps 751 mmHg 87%
    05:00 -3°C° 0 mm 2 mps 751 mmHg 88%
    06:00 -3°C° 0 mm 2 mps 751 mmHg 88%
    07:00 -3°C° 0 mm 2 mps 751 mmHg 89%
    08:00 -2°C° 0 mm 2 mps 751 mmHg 88%
    09:00 -2°C° 0 mm 3 mps 752 mmHg 87%
    10:00 -2°C° 0 mm 3 mps 752 mmHg 86%
    11:00 -1°C° 0 mm 3 mps 752 mmHg 85%
    12:00 -1°C° 0 mm 3 mps 752 mmHg 84%
    13:00 -1°C° 0 mm 3 mps 752 mmHg 83%
    14:00 -1°C° 0 mm 2 mps 752 mmHg 84%
    15:00 -1°C° 0 mm 2 mps 752 mmHg 86%
    16:00 -1°C° 0 mm 2 mps 752 mmHg 88%
    17:00 -1°C° 0 mm 2 mps 753 mmHg 89%
    18:00 -2°C° 0 mm 2 mps 753 mmHg 90%
    19:00 -2°C° 0 mm 2 mps 753 mmHg 91%
    20:00 -2°C° 0 mm 2 mps 753 mmHg 91%
    21:00 -2°C° 0 mm 2 mps 753 mmHg 91%
    22:00 -2°C° 0 mm 2 mps 753 mmHg 92%
    23:00 -2°C° 0 mm 2 mps 754 mmHg 91%

    Tomorrow, 15 December, Saturday

    Time Temperature Precipitation Wind Pressure Humidity
    00:00 -2°C° 0 mm 2 mps 754 mmHg 91%
    01:00 -2°C° 0 mm 3 mps 754 mmHg 90%
    02:00 -2°C° 0 mm 3 mps 754 mmHg 90%
    03:00 -2°C° 0 mm 3 mps 754 mmHg 90%
    04:00 -4°C° 0 mm 3 mps 754 mmHg 90%
    05:00 -4°C° 0 mm 3 mps 754 mmHg 90%
    06:00 -4°C° 0 mm 3 mps 754 mmHg 90%
    07:00 -4°C° 0 mm 3 mps 754 mmHg 90%
    08:00 -2°C° 0 mm 3 mps 755 mmHg 86%
    09:00 -2°C° 0 mm 3 mps 755 mmHg 82%
    10:00 -2°C° 0 mm 4 mps 755 mmHg 78%
    11:00 -2°C° 0 mm 4 mps 755 mmHg 77%
    12:00 -2°C° 0 mm 4 mps 755 mmHg 75%
    13:00 -2°C° 0 mm 4 mps 754 mmHg 74%
    14:00 -2°C° 0 mm 4 mps 754 mmHg 75%
    15:00 -3°C° 0 mm 4 mps 754 mmHg 77%
    16:00 -3°C° 0 mm 4 mps 754 mmHg 79%
    17:00 -4°C° 0 mm 5 mps 754 mmHg 78%
    18:00 -4°C° 0 mm 5 mps 754 mmHg 77%
    19:00 -4°C° 0 mm 5 mps 754 mmHg 76%
    20:00 -4°C° 0 mm 5 mps 754 mmHg 76%
    21:00 -4°C° 0 mm 5 mps 754 mmHg 76%
    22:00 -4°C° 0 mm 5 mps 753 mmHg 76%
    23:00 -5°C° 0.1 mm 6 mps 753 mmHg 77%

    Day after tomorrow, 16 December, Sunday

    Time Temperature Precipitation Wind Pressure Humidity
    00:00 -5°C° 0.1 mm 6 mps 753 mmHg 78%
    01:00 -5°C° 0.1 mm 6 mps 752 mmHg 79%
    02:00 -5°C° 0.2 mm 6 mps 752 mmHg 80%
    03:00 -5°C° 0.2 mm 6 mps 751 mmHg 81%
    04:00 -5°C° 0.2 mm 6 mps 751 mmHg 82%
    05:00 -5°C° 0.2 mm 6 mps 751 mmHg 83%
    06:00 -5°C° 0.2 mm 6 mps 750 mmHg 84%
    07:00 -5°C° 0.2 mm 6 mps 750 mmHg 85%
    08:00 -5°C° 0.3 mm 6 mps 750 mmHg 85%
    09:00 -5°C° 0.3 mm 6 mps 750 mmHg 85%
    10:00 -5°C° 0.3 mm 6 mps 750 mmHg 86%
    11:00 -5°C° 0.4 mm 6 mps 749 mmHg 87%
    12:00 -4°C° 0.4 mm 6 mps 749 mmHg 88%
    13:00 -4°C° 0.4 mm 5 mps 749 mmHg 90%
    14:00 -4°C° 0.5 mm 5 mps 749 mmHg 90%
    15:00 -4°C° 0.5 mm 5 mps 748 mmHg 91%
    16:00 -3°C° 0.5 mm 4 mps 748 mmHg 92%
    17:00 -3°C° 0.2 mm 4 mps 748 mmHg 92%
    18:00 -3°C° 0.2 mm 4 mps 748 mmHg 92%
    19:00 -3°C° 0.2 mm 4 mps 748 mmHg 92%
    20:00 -2°C° 0 mm 3 mps 748 mmHg 93%
    21:00 -2°C° 0 mm 3 mps 748 mmHg 93%
    22:00 -2°C° 0 mm 3 mps 748 mmHg 94%
    23:00 -2°C° 0 mm 3 mps 748 mmHg 94%

    17 December, Monday

    Time Temperature Precipitation Wind Pressure Humidity
    00:00 -4°C° 0 mm 3 mps 748 mmHg 95%
    01:00 -4°C° 0 mm 3 mps 748 mmHg 95%
    02:00 -4°C° 0 mm 3 mps 748 mmHg 95%
    03:00 -4°C° 0 mm 3 mps 748 mmHg 95%
    04:00 -4°C° 0 mm 3 mps 748 mmHg 94%
    05:00 -3°C° 0 mm 2 mps 749 mmHg 94%
    06:00 -3°C° 0 mm 2 mps 749 mmHg 94%
    07:00 -3°C° 0 mm 2 mps 749 mmHg 93%
    08:00 -3°C° 0 mm 2 mps 749 mmHg 92%
    09:00 -2°C° 0 mm 2 mps 749 mmHg 90%
    10:00 -2°C° 0 mm 2 mps 750 mmHg 89%
    11:00 -1°C° 0 mm 2 mps 750 mmHg 88%
    12:00 +1°C° 0 mm 1 mps 750 mmHg 88%
    13:00 +1°C° 0 mm 1 mps 750 mmHg 88%
    14:00 +1°C° 0 mm 1 mps 750 mmHg 89%
    15:00 0°C° 0 mm 1 mps 751 mmHg 89%
    16:00 -2°C° 0 mm 0 mps 751 mmHg 90%
    17:00 -2°C° 0 mm 0 mps 751 mmHg 89%
    18:00 -2°C° 0 mm 0 mps 752 mmHg 89%
    19:00 -2°C° 0 mm 0 mps 752 mmHg 89%
    20:00 -2°C° 0 mm 0 mps 752 mmHg 89%
    21:00 -2°C° 0 mm 0 mps 753 mmHg 89%
    22:00 -2°C° 0 mm 0 mps 753 mmHg 89%
    23:00 -2°C° 0 mm 0 mps 753 mmHg 89%

    18 December, Tuesday

    Time Temperature Precipitation Wind Pressure Humidity
    00:00 -2°C° 0 mm 0 mps 753 mmHg 89%
    01:00 -3°C° 0 mm 0 mps 753 mmHg 89%
    02:00 -3°C° 0 mm 0 mps 753 mmHg 90%
    03:00 -3°C° 0 mm 0 mps 754 mmHg 90%
    04:00 -3°C° 0 mm 0 mps 754 mmHg 90%
    05:00 -3°C° 0 mm 0 mps 754 mmHg 90%
    06:00 -2°C° 0 mm 1 mps 754 mmHg 91%
    07:00 -2°C° 0 mm 1 mps 754 mmHg 91%
    08:00 -2°C° 0 mm 1 mps 755 mmHg 90%
    09:00 -1°C° 0 mm 1 mps 755 mmHg 90%
    10:00 0°C° 0 mm 1 mps 755 mmHg 89%
    11:00 0°C° 0 mm 1 mps 755 mmHg 89%
    12:00 0°C° 0 mm 1 mps 755 mmHg 89%
    13:00 +1°C° 0 mm 1 mps 754 mmHg 90%
    14:00 0°C° 0 mm 1 mps 754 mmHg 91%
    15:00 -2°C° 0 mm 2 mps 754 mmHg 92%
    16:00 -3°C° 0 mm 2 mps 754 mmHg 93%
    17:00 -3°C° 0 mm 2 mps 754 mmHg 92%
    18:00 -3°C° 0 mm 2 mps 754 mmHg 92%
    19:00 -3°C° 0 mm 2 mps 754 mmHg 92%
    20:00 -3°C° 0 mm 2 mps 754 mmHg 92%
    21:00 -3°C° 0 mm 2 mps 754 mmHg 91%
    22:00 -4°C° 0 mm 3 mps 754 mmHg 90%
    23:00 -3°C° 0 mm 2 mps 754 mmHg 91%

    19 December, Wednesday

    Time Temperature Precipitation Wind Pressure Humidity
    00:00 -3°C° 0 mm 2 mps 754 mmHg 91%
    01:00 -3°C° 0 mm 2 mps 753 mmHg 91%
    02:00 -3°C° 0 mm 2 mps 753 mmHg 91%
    03:00 -3°C° 0 mm 2 mps 753 mmHg 92%
    04:00 -5°C° 0 mm 3 mps 753 mmHg 93%
    05:00 -5°C° 0 mm 3 mps 752 mmHg 93%
    06:00 -5°C° 0 mm 3 mps 752 mmHg 93%
    07:00 -5°C° 0 mm 4 mps 752 mmHg 93%
    08:00 -5°C° 0 mm 4 mps 752 mmHg 92%
    09:00 -4°C° 0 mm 4 mps 752 mmHg 91%
    10:00 -4°C° 0 mm 4 mps 752 mmHg 89%
    11:00 -5°C° 0 mm 5 mps 751 mmHg 89%
    12:00 -4°C° 0 mm 5 mps 751 mmHg 89%
    13:00 -4°C° 0 mm 5 mps 750 mmHg 89%
    14:00 -4°C° 0 mm 5 mps 750 mmHg 89%
    15:00 -4°C° 0 mm 5 mps 750 mmHg 90%
    16:00 -5°C° 0 mm 5 mps 750 mmHg 91%
    17:00 -5°C° 0 mm 5 mps 749 mmHg 91%
    18:00 -5°C° 0 mm 5 mps 749 mmHg 91%
    19:00 -5°C° 0 mm 5 mps 749 mmHg 91%
    20:00 -4°C° 0 mm 4 mps 749 mmHg 91%
    21:00 -3°C° 0 mm 4 mps 749 mmHg 91%
    22:00 -3°C° 0 mm 4 mps 749 mmHg 92%
    23:00 -3°C° 0 mm 4 mps 749 mmHg 92%
    Show more